Location: Leimbach
(47.5611°N, 9.1881°E)
Time: 00:39:55
(UTC+00:00)

Cosmos 1844 Rocket - Pass Details

Date: 07 June 2020
Orbit: 826 x 843 km, 71.0° (Epoch: 11 July)

Event Time Altitude Azimuth Distance (km) Brightness Sun altitude
Rises 01:57:36 0° 333° (NNW) 3,391 6.2 -11.5°
Reaches altitude 10° 02:00:04 10° 336° (NNW) 2,450 5.5 -11.2°
Maximum altitude 02:05:41 73° 61° (ENE) 868 2.9 -10.6°
Drops below altitude 10° 02:11:15 10° 147° (SSE) 2,425 4.9 -10.1°
Sets 02:13:40 0° 149° (SSE) 3,353 5.6 -9.8°
